EN

Hourly Weather Labetnik

Today, 26 July, Monday

Time Temperature Precipitation Wind Pressure Humidity
00:00 +19°C° 0 mm 3 mps 749 mmHg 75%
01:00 +19°C° 0 mm 3 mps 749 mmHg 76%
02:00 +19°C° 0 mm 3 mps 749 mmHg 75%
03:00 +18°C° 0 mm 3 mps 749 mmHg 75%
04:00 +18°C° 0 mm 3 mps 749 mmHg 76%
05:00 +18°C° 0 mm 3 mps 748 mmHg 76%
06:00 +19°C° 0 mm 3 mps 748 mmHg 72%
07:00 +21°C° 0 mm 4 mps 748 mmHg 68%
08:00 +22°C° 0 mm 4 mps 749 mmHg 65%
09:00 +25°C° 0 mm 5 mps 749 mmHg 60%
10:00 +27°C° 0 mm 5 mps 749 mmHg 55%
11:00 +28°C° 0 mm 6 mps 749 mmHg 50%
12:00 +28°C° 0 mm 6 mps 748 mmHg 50%
13:00 +28°C° 0 mm 5 mps 748 mmHg 50%
14:00 +28°C° 0 mm 5 mps 748 mmHg 53%
15:00 +26°C° 0.5 mm 5 mps 748 mmHg 63%
16:00 +25°C° 0.5 mm 5 mps 748 mmHg 72%
17:00 +23°C° 0.5 mm 5 mps 748 mmHg 81%
18:00 +22°C° 0.1 mm 5 mps 747 mmHg 82%
19:00 +22°C° 0.1 mm 4 mps 747 mmHg 82%
20:00 +21°C° 0.1 mm 4 mps 746 mmHg 83%
21:00 +20°C° 0 mm 4 mps 746 mmHg 86%
22:00 +20°C° 0 mm 4 mps 746 mmHg 88%
23:00 +19°C° 0 mm 3 mps 746 mmHg 91%

Tomorrow, 27 July, Tuesday

Time Temperature Precipitation Wind Pressure Humidity
00:00 +19°C° 0 mm 3 mps 746 mmHg 92%
01:00 +19°C° 0 mm 3 mps 746 mmHg 93%
02:00 +19°C° 0 mm 3 mps 746 mmHg 94%
03:00 +18°C° 0 mm 3 mps 746 mmHg 96%
04:00 +18°C° 0 mm 3 mps 745 mmHg 97%
05:00 +18°C° 0 mm 3 mps 745 mmHg 98%
06:00 +19°C° 0 mm 3 mps 745 mmHg 94%
07:00 +20°C° 0 mm 3 mps 745 mmHg 90%
08:00 +22°C° 0 mm 3 mps 745 mmHg 86%
09:00 +24°C° 0 mm 3 mps 745 mmHg 78%
10:00 +26°C° 0 mm 3 mps 745 mmHg 70%
11:00 +28°C° 0 mm 4 mps 745 mmHg 63%
12:00 +27°C° 0.3 mm 4 mps 745 mmHg 66%
13:00 +27°C° 0.3 mm 4 mps 746 mmHg 69%
14:00 +26°C° 0.3 mm 4 mps 746 mmHg 72%
15:00 +25°C° 0.2 mm 3 mps 746 mmHg 75%
16:00 +25°C° 0.2 mm 3 mps 746 mmHg 77%
17:00 +24°C° 0.2 mm 2 mps 746 mmHg 79%
18:00 +24°C° 0.2 mm 2 mps 745 mmHg 81%
19:00 +24°C° 0.2 mm 2 mps 745 mmHg 82%
20:00 +23°C° 0.2 mm 1 mps 745 mmHg 83%
21:00 +22°C° 0.4 mm 1 mps 745 mmHg 86%
22:00 +20°C° 0.4 mm 2 mps 746 mmHg 88%
23:00 +19°C° 0.4 mm 2 mps 746 mmHg 90%

Day after tomorrow, 28 July, Wednesday

Time Temperature Precipitation Wind Pressure Humidity
00:00 +19°C° 0 mm 2 mps 746 mmHg 90%
01:00 +19°C° 0 mm 2 mps 746 mmHg 90%
02:00 +19°C° 0 mm 2 mps 746 mmHg 91%
03:00 +18°C° 0 mm 2 mps 746 mmHg 91%
04:00 +18°C° 0 mm 2 mps 746 mmHg 92%
05:00 +18°C° 0 mm 2 mps 745 mmHg 92%
06:00 +19°C° 0 mm 2 mps 746 mmHg 88%
07:00 +21°C° 0 mm 2 mps 746 mmHg 85%
08:00 +23°C° 0 mm 2 mps 746 mmHg 81%
09:00 +25°C° 0 mm 2 mps 746 mmHg 72%
10:00 +26°C° 0 mm 2 mps 746 mmHg 63%
11:00 +28°C° 0 mm 3 mps 746 mmHg 54%
12:00 +29°C° 0 mm 3 mps 746 mmHg 52%
13:00 +29°C° 0 mm 3 mps 746 mmHg 49%
14:00 +30°C° 0 mm 3 mps 745 mmHg 46%
15:00 +29°C° 0.4 mm 3 mps 745 mmHg 52%
16:00 +28°C° 0.4 mm 3 mps 745 mmHg 57%
17:00 +27°C° 0.4 mm 3 mps 745 mmHg 63%
18:00 +25°C° 0.7 mm 2 mps 745 mmHg 70%
19:00 +24°C° 0.7 mm 2 mps 745 mmHg 78%
20:00 +21°C° 0.7 mm 2 mps 745 mmHg 85%
21:00 +22°C° 0.1 mm 1 mps 745 mmHg 85%
22:00 +21°C° 0.1 mm 1 mps 745 mmHg 85%
23:00 +21°C° 0.1 mm 1 mps 745 mmHg 85%

29 July, Thursday

Time Temperature Precipitation Wind Pressure Humidity
00:00 +21°C° 0.1 mm 1 mps 744 mmHg 86%
01:00 +20°C° 0.1 mm 1 mps 744 mmHg 87%
02:00 +19°C° 0.1 mm 2 mps 744 mmHg 88%
03:00 +20°C° 0.1 mm 1 mps 744 mmHg 89%
04:00 +20°C° 0.1 mm 1 mps 744 mmHg 89%
05:00 +19°C° 0.1 mm 1 mps 744 mmHg 89%
06:00 +19°C° 0 mm 2 mps 744 mmHg 87%
07:00 +20°C° 0 mm 2 mps 744 mmHg 86%
08:00 +20°C° 0 mm 2 mps 744 mmHg 84%
09:00 +22°C° 0 mm 3 mps 745 mmHg 75%
10:00 +24°C° 0 mm 3 mps 745 mmHg 67%
11:00 +25°C° 0 mm 4 mps 745 mmHg 59%
12:00 +26°C° 0 mm 4 mps 744 mmHg 54%
13:00 +27°C° 0 mm 5 mps 744 mmHg 49%
14:00 +28°C° 0 mm 6 mps 744 mmHg 44%
15:00 +28°C° 0 mm 6 mps 744 mmHg 46%
16:00 +27°C° 0 mm 5 mps 744 mmHg 48%
17:00 +27°C° 0 mm 5 mps 744 mmHg 49%
18:00 +26°C° 0 mm 4 mps 743 mmHg 53%
19:00 +23°C° 0 mm 4 mps 743 mmHg 56%
20:00 +22°C° 0 mm 3 mps 743 mmHg 60%
21:00 +21°C° 0 mm 3 mps 743 mmHg 62%
22:00 +20°C° 0 mm 3 mps 743 mmHg 64%
23:00 +19°C° 0 mm 3 mps 744 mmHg 66%

30 July, Friday

Time Temperature Precipitation Wind Pressure Humidity
00:00 +18°C° 0 mm 3 mps 743 mmHg 68%
01:00 +18°C° 0 mm 3 mps 743 mmHg 71%
02:00 +17°C° 0 mm 3 mps 743 mmHg 73%
03:00 +17°C° 0 mm 2 mps 743 mmHg 72%
04:00 +17°C° 0 mm 2 mps 743 mmHg 72%
05:00 +17°C° 0 mm 2 mps 743 mmHg 71%
06:00 +18°C° 0 mm 3 mps 743 mmHg 68%
07:00 +19°C° 0 mm 3 mps 743 mmHg 65%
08:00 +21°C° 0 mm 3 mps 743 mmHg 62%
09:00 +22°C° 0 mm 4 mps 743 mmHg 56%
10:00 +23°C° 0 mm 4 mps 743 mmHg 51%
11:00 +25°C° 0 mm 5 mps 743 mmHg 45%
12:00 +26°C° 0 mm 5 mps 743 mmHg 44%
13:00 +27°C° 0 mm 5 mps 743 mmHg 42%
14:00 +27°C° 0 mm 5 mps 742 mmHg 41%
15:00 +27°C° 0 mm 5 mps 742 mmHg 43%
16:00 +27°C° 0 mm 5 mps 742 mmHg 44%
17:00 +27°C° 0 mm 5 mps 742 mmHg 46%
18:00 +25°C° 0 mm 4 mps 741 mmHg 52%
19:00 +22°C° 0 mm 3 mps 741 mmHg 58%
20:00 +20°C° 0 mm 2 mps 741 mmHg 64%
21:00 +19°C° 0 mm 2 mps 741 mmHg 66%
22:00 +18°C° 0 mm 2 mps 741 mmHg 67%
23:00 +17°C° 0 mm 2 mps 742 mmHg 69%

31 July, Saturday

Time Temperature Precipitation Wind Pressure Humidity
00:00 +17°C° 0 mm 2 mps 742 mmHg 72%
01:00 +16°C° 0 mm 1 mps 742 mmHg 75%
02:00 +15°C° 0 mm 1 mps 742 mmHg 79%
03:00 +15°C° 0 mm 1 mps 742 mmHg 79%
04:00 +15°C° 0 mm 1 mps 741 mmHg 80%
05:00 +15°C° 0 mm 1 mps 741 mmHg 80%
06:00 +16°C° 0 mm 1 mps 741 mmHg 73%
07:00 +18°C° 0 mm 2 mps 741 mmHg 67%
08:00 +20°C° 0 mm 2 mps 742 mmHg 60%
09:00 +21°C° 0 mm 2 mps 742 mmHg 56%
10:00 +24°C° 0 mm 3 mps 742 mmHg 51%
11:00 +25°C° 0 mm 3 mps 742 mmHg 47%
12:00 +26°C° 0 mm 3 mps 741 mmHg 46%
13:00 +27°C° 0 mm 3 mps 741 mmHg 44%
14:00 +27°C° 0 mm 4 mps 741 mmHg 42%
15:00 +27°C° 0 mm 3 mps 741 mmHg 45%
16:00 +27°C° 0 mm 3 mps 740 mmHg 48%
17:00 +27°C° 0 mm 3 mps 740 mmHg 51%
18:00 +24°C° 0.8 mm 3 mps 740 mmHg 64%
19:00 +21°C° 0.8 mm 3 mps 740 mmHg 77%
20:00 +19°C° 0.8 mm 3 mps 740 mmHg 90%
21:00 +18°C° 0 mm 3 mps 740 mmHg 91%
22:00 +17°C° 0 mm 3 mps 741 mmHg 92%
23:00 +16°C° 0 mm 3 mps 741 mmHg 93%
Show more